V.C. Bird, Antigua

9:50 PM AST on May 22, 2017 (GMT -0400)
V C Bird International

Weather History for TAPA - February, 2013

Change the Weather History Date:

Friday, February 22, 2013

  Actual Average Record
Temperature  
Mean Temperature 78 °F -  
Max Temperature 82 °F 81 °F 86 °F (1998)
Min Temperature 75 °F 72 °F 32 °F (2015)
Cooling Degree Days 14    
Growing Degree Days 28 (Base 50)    
Moisture  
Dew Point 68 °F    
Average Humidity 71    
Maximum Humidity 83    
Minimum Humidity 55    
Precipitation  
Precipitation 0.00 in - - ()
Sea Level Pressure  
Sea Level Pressure 30.01 in    
Wind  
Wind Speed 9 mph ()    
Max Wind Speed 13 mph    
Max Gust Speed -    
Visibility 9.0 miles    
Events      
Averages and records for this station are not official NWS values.
T = Trace of Precipitation, MM = Missing Value Source: Averaged Metar Reports

Daily Weather History Graph

Daily Weather History Graph

Search for Another Location

Airport or City:

Trip Planner

Search our weather history database for the weather conditions in past years. The results will help you decide how hot, cold, wet, or windy it might be!

Date:

Astronomy

Feb. 22, 2013 Rise Set
Actual Time 6:29 AM AST 6:11 PM AST
Civil Twilight 6:07 AM AST 6:33 PM AST
Nautical Twilight 5:42 AM AST 6:59 PM AST
Astronomical Twilight 5:17 AM AST 7:24 PM AST
Moon 3:34 PM AST (2/22) 3:53 AM AST (2/22)
Length of Visible Light 12h 26m
Length of Day
11h 42m
Waxing Gibbous, 90% of the Moon is Illuminated
Feb 22
Waxing Gibbous
Feb 25
Full
Mar 4
Last Quarter
Mar 11
New
Mar 19
First Quarter

Hourly Weather History & Observations

Time (AST) Temp. Heat Index Dew Point Humidity Pressure Visibility Wind Dir Wind Speed Gust Speed Precip Events Conditions
12:00 AM 75.2 °F - 68.0 °F 78% 30.01 in 6.2 mi ENE 9.2 mph - N/A   Partly Cloudy
1:00 AM 75.2 °F - 68.0 °F 78% 30.01 in 6.2 mi ENE 10.4 mph - N/A   Scattered Clouds
2:00 AM 76 °F - 68 °F 71% 29.99 in 17 mi ENE 10.4 mph - -   Haze
2:00 AM 75.2 °F - 68.0 °F 78% 29.98 in 6.2 mi ENE 10.4 mph - N/A   Partly Cloudy
3:00 AM 75.2 °F - 69.8 °F 83% 29.95 in 6.2 mi ENE 5.8 mph - N/A   Partly Cloudy
4:00 AM 75.2 °F - 69.8 °F 83% 29.98 in 6.2 mi East 8.1 mph - N/A   Partly Cloudy
5:00 AM 76 °F - 68 °F 69% 29.98 in 16 mi East 6.9 mph - -   Haze
5:00 AM 75.2 °F - 68.0 °F 78% 29.98 in 6.2 mi East 6.9 mph - N/A   Partly Cloudy
6:00 AM 75.2 °F - 68.0 °F 78% 29.98 in 6.2 mi East 6.9 mph - N/A   Scattered Clouds
7:00 AM 77.0 °F - 68.0 °F 74% 30.01 in 6.2 mi East 9.2 mph - N/A   Scattered Clouds
8:00 AM 78 °F - 69 °F 67% 30.02 in 17 mi East 9.2 mph - -   Haze
8:00 AM 77.0 °F - 69.8 °F 78% 30.01 in 6.2 mi East 9.2 mph - N/A   Scattered Clouds
9:00 AM 80.6 °F 83.2 °F 68.0 °F 65% 30.04 in 6.2 mi East 9.2 mph - N/A   Partly Cloudy
10:00 AM 80.6 °F 83.9 °F 69.8 °F 70% 30.04 in 6.2 mi ENE 8.1 mph - N/A   Mostly Cloudy
11:00 AM 82 °F - 68 °F 55% 30.06 in 17 mi ENE 10.4 mph - -   Haze
11:00 AM 82.4 °F 85.4 °F 68.0 °F 62% 30.04 in 6.2 mi ENE 10.4 mph - N/A   Scattered Clouds
12:00 PM 82.4 °F 85.4 °F 68.0 °F 62% 30.04 in 6.2 mi ENE 11.5 mph - N/A   Scattered Clouds
1:00 PM 82.4 °F 85.4 °F 68.0 °F 62% 30.01 in 6.2 mi ENE 11.5 mph - N/A   Partly Cloudy
2:00 PM 81 °F - 68 °F 56% 30.00 in 17 mi ENE 11.5 mph - -   Haze
2:00 PM 80.6 °F 83.2 °F 68.0 °F 65% 29.98 in 6.2 mi ENE 11.5 mph - N/A   Partly Cloudy
3:00 PM 78.8 °F - 69.8 °F 74% 29.98 in 6.2 mi NE 11.5 mph - N/A   Scattered Clouds
5:00 PM 79 °F - 69 °F 63% 29.98 in 17 mi ENE 12.7 mph - -   Haze
5:00 PM 78.8 °F - 68.0 °F 69% 29.98 in 6.2 mi ENE 12.7 mph - N/A   Scattered Clouds
6:00 PM 77.0 °F - 68.0 °F 74% 29.98 in 6.2 mi ENE 10.4 mph - N/A   Mostly Cloudy
7:00 PM 77.0 °F - 68.0 °F 74% 30.01 in 6.2 mi ENE 10.4 mph - N/A   Mostly Cloudy
8:00 PM 76 °F - 68 °F 70% 30.02 in 17 mi ENE 11.5 mph - -   Haze
8:00 PM 77.0 °F - 68.0 °F 74% 30.01 in 6.2 mi ENE 11.5 mph - N/A   Mostly Cloudy
9:00 PM 77.0 °F - 68.0 °F 74% 30.01 in 6.2 mi ENE 10.4 mph - N/A   Mostly Cloudy
10:00 PM 77.0 °F - 66.2 °F 69% 30.04 in 6.2 mi ENE 10.4 mph - N/A   Partly Cloudy
11:00 PM 76 °F - 68 °F 69% 30.03 in 17 mi ENE 10.4 mph - -   Haze
11:00 PM 77.0 °F - 68.0 °F 74% 30.01 in 6.2 mi ENE 10.4 mph - N/A   Mostly Cloudy